Regional Weather Roundup
Issued by NWS

Home | Current Version | Previous Version | Text Only | Print | Product List | Glossary Off
Versions: 1 2 3 4 5 6 7 8 9 10 11 12 13 14 15 16 17 18 19 20 21 22 23 24 25 26 27 28 29 30 31 32 33 34 35 36 37 38 39 40 41 42 43 44 45 46 47 48 49 50

000
ASUS43 KMKX 010521
RWRWI

WISCONSIN REGIONAL WEATHER ROUNDUP
NATIONAL WEATHER SERVICE MILWAUKEE/SULLIVAN WI
1200 AM CDT SAT AUG 01 2015

NOTE: "FAIR" INDICATES FEW OR NO CLOUDS BELOW 12,000 FEET WITH NO
SIGNIFICANT WEATHER AND/OR OBSTRUCTIONS TO VISIBILITY.

WIZ001-002-006>008-014>016-023>028-010600-
NORTHWEST WISCONSIN

CITY           SKY/WX    TMP DP  RH WIND       PRES   REMARKS
SUPERIOR ARPT  CLEAR     62  52  70 W9        29.94S
ASHLAND        PTCLDY    55  53  93 W3        29.93R
HAYWARD        CLEAR     55  50  83 CALM      29.97S
SIREN          CLEAR     60  51  71 W3        29.98S
CUMBERLAND     CLEAR     55  52  88 W6        29.99S
RICE LAKE      PTCLDY    59  53  80 CALM      30.00S
CHETEK         MOCLDY    60  55  84 SW3       29.99S
LADYSMITH      CLEAR     59  53  79 SW5       29.99S
EAU CLAIRE     PTCLDY    62  53  72 SW5       29.98S
MENOMONIE      CLEAR     64  55  70 SW6       29.99S
NEW RICHMOND   PTCLDY    63  55  74 W6        30.00S
OSCEOLA        CLEAR     60  58  93 CALM      30.02R
$$

WIZ003>005-009-010-017-018-010600-
NORTH CENTRAL WISCONSIN

CITY           SKY/WX    TMP DP  RH WIND       PRES   REMARKS
MANITOWISH WTR PTCLDY    56  56 100 CALM      29.94S
ARBOR VITAE    CLEAR     58  56  94 CALM      29.94S
WOODRUFF       CLEAR     58  56  94 CALM      29.94S
RHINELANDER    PTCLDY    54  52  93 W6        29.96S
EAGLE RIVER    FOG       54  54 100 CALM      29.94S VSB 1
LAND O LAKES   CLEAR     55  53  94 W3        29.94S
PHILLIPS       CLEAR     58  53  82 W3        29.96S
TOMAHAWK       CLEAR     53  52  97 CALM      29.96S
MEDFORD        CLEAR     60  52  74 W5        29.98S
MERRILL        NOT AVBL
$$

WIZ029-030-035-036-043>047-010600-
CENTRAL WISCONSIN

CITY           SKY/WX    TMP DP  RH WIND       PRES   REMARKS
WAUSAU         CLEAR     63  55  75 S5        29.95S
MOSINEE        CLEAR     61  55  82 SW5       29.98S
MARSHFIELD     CLEAR     61  50  67 W7        29.98S
STEVENS POINT  CLEAR     57  52  82 W3        29.98S
WAUPACA        CLEAR     61  56  83 CALM      29.96S
WAUTOMA        CLEAR     58  52  80 CALM      29.98S
WISC RAPIDS    CLEAR     63  51  65 W6        29.99R
CAMP DOUGLAS   CLEAR     54  54 100 NW2       29.98S
$$

WIZ011>013-019>022-031-037>040-048>050-010600-
NORTHEAST WISCONSIN

CITY           SKY/WX    TMP DP  RH WIND       PRES   REMARKS
ANTIGO         PTCLDY    57  55  95 W5        29.96S
SHAWANO        CLOUDY    66  56  70 W5        29.94S
OCONTO         CLEAR     58  54  86 W3        29.91S
STURGEON BAY   CLEAR     64  52  63 SW6       29.93S
GREEN BAY      PTCLDY    61  56  83 W7        29.93S
MANITOWOC      MOCLDY    66  54  65 MISG      29.94S
APPLETON       PTCLDY    61  52  72 W7        29.96S
CLINTONVILLE   PTCLDY    61  54  77 W3        29.94S
OSHKOSH        CLEAR     66  53  63 W3        29.96R
$$

WIZ032>034-041-042-053>061-010600-
SOUTHWEST WISCONSIN

CITY           SKY/WX    TMP DP  RH WIND       PRES   REMARKS
LA CROSSE      PTCLDY    66  57  72 SE3       30.00R
SPARTA         CLEAR     54  52  93 CALM      30.01S
VIROQUA        PTCLDY    61  54  76 SW7       30.03S
BOSCOBEL       CLEAR     60  57  89 SW3       30.02R
PRAIRIE DU CHI CLEAR     63  56  77 CALM      30.03R
PLATTEVILLE    CLEAR     63  57  80 CALM      30.03S
$$

WIZ056-057-062-063-064-067-068-010600-
SOUTH CENTRAL WISCONSIN

CITY           SKY/WX    TMP DP  RH WIND       PRES   REMARKS
REEDSBURG      CLEAR     58  54  85 CALM      30.00S
BARABOO/DELLS  CLEAR     60  50  70 CALM      30.00S
LONE ROCK      CLEAR     58  54  86 CALM      30.02R
MINERAL POINT  CLEAR     63  54  72 W5        30.03S
MADISON        CLEAR     67  51  56 W3        29.99S
MIDDLETON      CLEAR     58  54  87 CALM      30.01S
WATERTOWN      CLEAR     61  55  81 CALM      29.98S
MONROE         CLEAR     64  54  68 W10       30.02S
JANESVILLE     CLEAR     61  52  72 CALM      29.99F
$$

WIZ051-052-058>065-066-070>072-010600-
SOUTHEAST WISCONSIN

CITY           SKY/WX    TMP DP  RH WIND       PRES   REMARKS
MILWAUKEE      CLEAR     71  51  49 W6        29.96S
WAUKESHA       CLEAR     63  50  63 W6        29.99S
MILWAUKEE/TIMM PTCLDY    66  50  55 W7        29.98R
RACINE         CLEAR     67  51  56 W5        29.99R
BURLINGTON     CLEAR     63  51  65 W6        29.99R
KENOSHA        CLEAR     61  52  72 W6        29.98S
FOND DU LAC    CLOUDY    64  54  69 SW5       29.97R
SHEBOYGAN      LGT RAIN  68  55  63 W5        29.95S
WEST BEND      FAIR      64  50  59 W5        29.97S
JUNEAU         CLEAR     61  53  74 CALM      29.99S
$$

LSZ147-162-010600-
LAKE SUPERIOR

STATION/POSITION TIME  TEMP    WIND        PRES    WAVE
                       AIR SEA DIR/SP/G            HT/PER
                 (UTC) (F)     (DEG/KT/KT) (MB)    (FT/S)
W MID LAKE BUOY  0450   59 53  270/ 14/ 16 1010.9F   1/ 3
DEVILS ISLAND    0500   64     220/ 12/ 12 1012.3F
PORT WING        0400   69     260/ 10/ 14 1012.9
SAXON HARBOR     0440   60                 1012.2F
$$

LMZ867-665-643>646-010600-
LAKE MICHIGAN

STATION/POSITION TIME  TEMP    WIND        PRES    WAVE
                       AIR SEA DIR/SP/G            HT/PER
                 (UTC) (F)     (DEG/KT/KT) (MB)    (FT/S)
CHAMBERS ISLAND  0400   69     240/  4/ 10 1012.2S
S GREEN BAY BUOY 0300   68 71  280/  8/ 10 1014.3
N MID LAKE BUOY  0450   69 68  280/ 12/ 14 1011.0S   1/ 3
NORTHPORT PIER   0400   71     280/  8/ 13 1011.9S
SISTER BAY       0414   70     300/ 16/ 19   N/A
ALGOMA LAKESHORE 0412           CALM  /  3   N/A
KEWAUNEE LAKESHO 0400   66     300/  4/  5 1012.8R
SHEBOYGAN LAKESH 0500   71     280/  8/ 10 1014.0S
PORT WASHINGTON  0440   70     280/  6/  9 1014.9R
ATWATER BUOY     0500   70 68  280/  6/  8 1016.0R
MILWAUKEE LAKESH 0500   72     310/  4/  7   N/A
KENOSHA   LAKESH 0500   71     280/ 10/ 13 1014.6R
$$

TC  - TEMPERATURE IN CELSIUS
VSB - VISIBILITY IN STATUTE MILES
WCI - WIND CHILL INDEX
HX  - HEAT INDEX




USA.gov is the U.S. government's official web portal to all federal, state and local government web resources and services.